| time (UTC) | temp F | wind direction | speed MPH | gust MPH | rain 1hr in | rain 24hr in | rain mn in | humidity % | barometer mb |
| 20260504011025 | 69 | 0 | 0.0 | 0.0 | 0.00 | 0.00 | 0.00 | 7 | 1017.8 |
| 20260504010025 | 69 | 0 | 0.0 | 1.0 | 0.00 | 0.00 | 0.00 | 7 | 1017.8 |
| 20260504005025 | 69 | 41 | 1.0 | 1.0 | 0.00 | 0.00 | 0.00 | 7 | 1017.7 |
| 20260504004025 | 69 | 0 | 0.0 | 0.0 | 0.00 | 0.00 | 0.00 | 7 | 1017.6 |
| 20260504003025 | 68 | 41 | 1.0 | 2.0 | 0.00 | 0.00 | 0.00 | 7 | 1017.6 |
| 20260504002025 | 69 | 0 | 0.0 | 1.0 | 0.00 | 0.00 | 0.00 | 7 | 1017.6 |
| 20260504001025 | 68 | 0 | 0.0 | 1.0 | 0.00 | 0.00 | 0.00 | 7 | 1017.7 |
| 20260504000025 | 68 | 57 | 1.0 | 1.0 | 0.00 | 0.00 | 0.00 | 8 | 1017.8 |
| 20260503235025 | 67 | 0 | 0.0 | 2.0 | 0.00 | 0.00 | 0.00 | 7 | 1017.7 |
| 20260503234025 | 67 | 58 | 3.0 | 3.0 | 0.00 | 0.00 | 0.00 | 8 | 1017.7 |
| 20260503233025 | 68 | 125 | 1.0 | 2.0 | 0.00 | 0.00 | 0.00 | 7 | 1017.8 |
| 20260503232025 | 68 | 0 | 0.0 | 0.0 | 0.00 | 0.00 | 0.00 | 7 | 1017.9 |
| 20260503231025 | 68 | 76 | 1.0 | 1.0 | 0.00 | 0.00 | 0.00 | 7 | 1018.0 |
| 20260503230025 | 67 | 53 | 1.0 | 2.0 | 0.00 | 0.00 | 0.00 | 7 | 1017.8 |
| 20260503225025 | 67 | 49 | 3.0 | 3.0 | 0.00 | 0.00 | 0.00 | 8 | 1017.7 |
| 20260503224025 | 67 | 45 | 3.0 | 3.0 | 0.00 | 0.00 | 0.00 | 8 | 1017.4 |
| 20260503223024 | 67 | 44 | 2.0 | 2.0 | 0.00 | 0.00 | 0.00 | 8 | 1017.4 |
| 20260503222024 | 66 | 24 | 3.0 | 3.0 | 0.00 | 0.00 | 0.00 | 8 | 1017.3 |
| 20260503221024 | 66 | 23 | 1.0 | 1.0 | 0.00 | 0.00 | 0.00 | 7 | 1017.2 |
| 20260503220024 | 67 | 23 | 3.0 | 3.0 | 0.00 | 0.00 | 0.00 | 7 | 1017.2 |
| 20260503215024 | 67 | 0 | 0.0 | 0.0 | 0.00 | 0.00 | 0.00 | 7 | 1017.1 |
| 20260503214024 | 66 | 45 | 1.0 | 1.0 | 0.00 | 0.00 | 0.00 | 8 | 1017.1 |
| 20260503213024 | 66 | 0 | 0.0 | 0.0 | 0.00 | 0.00 | 0.00 | 8 | 1016.8 |
| 20260503212024 | 65 | 0 | 0.0 | 0.0 | 0.00 | 0.00 | 0.00 | 8 | 1016.8 |
| 20260503211024 | 64 | 0 | 0.0 | 0.0 | 0.00 | 0.00 | 0.00 | 8 | 1016.7 |
| 20260503210024 | 63 | 0 | 0.0 | 0.0 | 0.00 | 0.00 | 0.00 | 8 | 1016.7 |
| 20260503205024 | 63 | 0 | 0.0 | 0.0 | 0.00 | 0.00 | 0.00 | 8 | 1016.7 |
| 20260503204024 | 62 | 0 | 0.0 | 0.0 | 0.00 | 0.00 | 0.00 | 8 | 1016.5 |
| 20260503203024 | 62 | 0 | 0.0 | 0.0 | 0.00 | 0.00 | 0.00 | 8 | 1016.5 |
| 20260503202024 | 62 | 0 | 0.0 | 0.0 | 0.00 | 0.00 | 0.00 | 8 | 1016.4 |
| 20260503201024 | 63 | 0 | 0.0 | 0.0 | 0.00 | 0.00 | 0.00 | 8 | 1016.3 |
| 20260503200024 | 62 | 0 | 0.0 | 0.0 | 0.00 | 0.00 | 0.00 | 8 | 1016.3 |
| 20260503195024 | 62 | 0 | 0.0 | 0.0 | 0.00 | 0.00 | 0.00 | 8 | 1016.2 |
| 20260503194024 | 62 | 0 | 0.0 | 1.0 | 0.00 | 0.00 | 0.00 | 8 | 1016.1 |
| 20260503193024 | 62 | 0 | 0.0 | 2.0 | 0.00 | 0.00 | 0.00 | 8 | 1016.0 |
| 20260503192023 | 62 | 16 | 1.0 | 1.0 | 0.00 | 0.00 | 0.00 | 8 | 1015.9 |
| 20260503191023 | 62 | 0 | 0.0 | 0.0 | 0.00 | 0.00 | 0.00 | 8 | 1016.0 |
| 20260503190023 | 63 | 0 | 0.0 | 0.0 | 0.00 | 0.00 | 0.00 | 8 | 1016.0 |
| 20260503185023 | 62 | 0 | 0.0 | 0.0 | 0.00 | 0.00 | 0.00 | 8 | 1016.0 |
| 20260503184023 | 62 | 0 | 0.0 | 0.0 | 0.00 | 0.00 | 0.00 | 8 | 1016.0 |
| 20260503183023 | 63 | 16 | 1.0 | 2.0 | 0.00 | 0.00 | 0.00 | 8 | 1016.0 |
| 20260503182023 | 63 | 0 | 0.0 | 0.0 | 0.00 | 0.00 | 0.00 | 8 | 1015.9 |
| 20260503181023 | 63 | 0 | 0.0 | 0.0 | 0.00 | 0.00 | 0.00 | 8 | 1015.9 |
| 20260503180023 | 63 | 0 | 0.0 | 0.0 | 0.00 | 0.00 | 0.00 | 8 | 1016.0 |
| 20260503175023 | 63 | 0 | 0.0 | 0.0 | 0.00 | 0.00 | 0.00 | 8 | 1016.1 |
| 20260503174023 | 63 | 0 | 0.0 | 0.0 | 0.00 | 0.00 | 0.00 | 8 | 1016.1 |
| 20260503173023 | 63 | 0 | 0.0 | 0.0 | 0.00 | 0.00 | 0.00 | 8 | 1016.2 |
| 20260503172023 | 63 | 0 | 0.0 | 0.0 | 0.00 | 0.00 | 0.00 | 8 | 1016.4 |
| 20260503171023 | 63 | 0 | 0.0 | 0.0 | 0.00 | 0.00 | 0.00 | 8 | 1016.5 |
| 20260503131020 | 65 | 0 | 0.0 | 0.0 | 0.00 | 0.00 | 0.00 | 8 | 1018.5 |
| 20260503081018 | 69 | 49 | 2.0 | 3.0 | 0.00 | 0.00 | 0.00 | 8 | 1018.8 |
| 20260503072017 | 69 | 62 | 2.0 | 3.0 | 0.00 | 0.00 | 0.00 | 7 | 1018.6 |
| 20260503071017 | 70 | 62 | 1.0 | 1.0 | 0.00 | 0.00 | 0.00 | 7 | 1018.6 |
| 20260503055017 | 71 | 54 | 4.0 | 5.0 | 0.00 | 0.00 | 0.00 | 7 | 1018.8 |
| 20260503054017 | 71 | 33 | 2.0 | 3.0 | 0.00 | 0.00 | 0.00 | 7 | 1018.9 |
| 20260503053017 | 72 | 78 | 2.0 | 7.0 | 0.00 | 0.00 | 0.00 | 7 | 1018.9 |
| 20260503052017 | 72 | 93 | 8.0 | 9.0 | 0.00 | 0.00 | 0.00 | 7 | 1018.9 |
| 20260503051017 | 72 | 39 | 8.0 | 12.0 | 0.00 | 0.00 | 0.00 | 7 | 1019.0 |
| 20260503050017 | 72 | 58 | 3.0 | 3.0 | 0.00 | 0.00 | 0.00 | 7 | 1019.0 |
| 20260503045017 | 72 | 64 | 5.0 | 9.0 | 0.00 | 0.00 | 0.00 | 7 | 1019.0 |
| 20260503044017 | 72 | 75 | 5.0 | 12.0 | 0.00 | 0.00 | 0.00 | 7 | 1019.2 |
| 20260503043017 | 73 | 41 | 13.0 | 13.0 | 0.00 | 0.00 | 0.00 | 7 | 1019.2 |
| 20260503042017 | 72 | 119 | 5.0 | 7.0 | 0.00 | 0.00 | 0.00 | 7 | 1019.2 |
| 20260503041017 | 73 | 74 | 4.0 | 11.0 | 0.00 | 0.00 | 0.00 | 7 | 1019.3 |
| 20260503040015 | 73 | 40 | 6.0 | 7.0 | 0.00 | 0.00 | 0.00 | 7 | 1019.3 |
| 20260503035015 | 73 | 40 | 5.0 | 8.0 | 0.00 | 0.00 | 0.00 | 7 | 1019.3 |
| 20260503034015 | 73 | 37 | 6.0 | 7.0 | 0.00 | 0.00 | 0.00 | 7 | 1019.5 |
| 20260503033015 | 73 | 38 | 5.0 | 9.0 | 0.00 | 0.00 | 0.00 | 7 | 1019.5 |
| 20260503032015 | 73 | 43 | 5.0 | 6.0 | 0.00 | 0.00 | 0.00 | 7 | 1019.8 |
| 20260503031015 | 73 | 31 | 9.0 | 9.0 | 0.00 | 0.00 | 0.00 | 7 | 1019.9 |
| 20260503030015 | 73 | 43 | 4.0 | 4.0 | 0.00 | 0.00 | 0.00 | 7 | 1019.9 |
| 20260503025015 | 72 | 64 | 2.0 | 4.0 | 0.00 | 0.00 | 0.00 | 7 | 1020.2 |
| 20260503024015 | 73 | 90 | 6.0 | 6.0 | 0.00 | 0.00 | 0.00 | 7 | 1020.2 |
| 20260503023015 | 73 | 16 | 6.0 | 8.0 | 0.00 | 0.00 | 0.00 | 7 | 1020.2 |
| 20260503022015 | 73 | 31 | 4.0 | 5.0 | 0.00 | 0.00 | 0.00 | 7 | 1020.4 |
| 20260503021015 | 73 | 30 | 5.0 | 5.0 | 0.00 | 0.00 | 0.00 | 7 | 1020.7 |
| 20260503020015 | 73 | 44 | 7.0 | 9.0 | 0.00 | 0.00 | 0.00 | 7 | 1020.9 |
| 20260503015015 | 73 | 80 | 6.0 | 8.0 | 0.00 | 0.00 | 0.00 | 6 | 1021.0 |
| 20260503014015 | 73 | 19 | 7.0 | 8.0 | 0.00 | 0.00 | 0.00 | 6 | 1021.1 |
| 20260503013015 | 73 | 74 | 9.0 | 9.0 | 0.00 | 0.00 | 0.00 | 6 | 1021.2 |
| 20260503012015 | 73 | 41 | 3.0 | 5.0 | 0.00 | 0.00 | 0.00 | 6 | 1021.5 |